Home   Weather   Ørsta   Past weeks

Flag for Norway Past Weather in Ørsta, Norway — Yesterday and Last 2 Weeks

Now
36 °F

Chilly.


Feels Like: 36 °F
Forecast: 33 / 54 °F
Wind: 2 mph from North

Location: Alesund / Vigra

Current Time: Apr 30, 2017 at 3:25:31 am

Latest Report: Apr 30, 2017 at 2:50 am


Visibility: N/A

Pressure: 30.18 "Hg

Humidity: 87%

Dew Point: 32 °F

Location of ØrstaLocation

Past Weather in Ørsta — Graph

°F

Ørsta Temperature Yesterday

Maximum temperature yesterday: 54 °F (at 1:50 pm)
Minimum temperature yesterday: 41 °F (at 10:20 pm)
Average temperature yesterday: 47 °F

High & Low Weather Summary for the Past Weeks

 TemperatureHumidityPressure
High54 °F (Apr 29, 1:50 pm)100% (Apr 16, 12:50 am)30.51 "Hg (Apr 16, 12:50 am)
Low28 °F (Apr 16, 5:20 am)33% (Apr 29, 1:50 pm)29.59 "Hg (Apr 24, 3:50 pm)
Average40 °F72%29.95 "Hg
* Reported Apr 15 1:20 am — Apr 30 1:50 am, Ørsta, Weather by CustomWeather, © 2017

Note: Actual official high and low records may vary slightly from our data, if they occured in-between our weather recording intervals... More about our weather records

Advertising

Ørsta Weather History for the Previous 24 Hours

Scroll right to see more
 ConditionsComfort  
Time TempWeatherWind HumidityBarometerVisibility
1:50 am
Sun, Apr 30
39 °FChilly.7 mph87%30.18 "HgN/A
1:20 am39 °FChilly.8 mph87%30.18 "HgN/A
12:50 am39 °FChilly.9 mph87%30.18 "HgN/A
12:20 am39 °FChilly.7 mph81%30.18 "HgN/A
11:50 pm
Sat, Apr 29
41 °FQuite cool.5 mph76%30.18 "HgN/A
11:20 pm41 °FPassing clouds.5 mph76%30.18 "HgN/A
10:50 pm41 °FClear.2 mph70%30.18 "Hg10 mi
10:20 pm41 °FPassing clouds.3 mph76%30.18 "HgN/A
9:20 pm45 °FSunny.6 mph71%30.18 "Hg10 mi
8:50 pm46 °FPartly sunny.6 mph62%30.18 "HgN/A
8:20 pm46 °FPartly sunny.7 mph62%30.18 "HgN/A
7:50 pm46 °FPartly sunny.6 mph62%30.18 "HgN/A
7:20 pm48 °FBroken clouds.6 mph58%30.18 "HgN/A
6:50 pm48 °FBroken clouds.6 mph62%30.18 "HgN/A
6:20 pm48 °FPassing clouds.5 mph62%30.18 "HgN/A
5:50 pm48 °FPassing clouds.6 mph62%30.18 "HgN/A
5:20 pm48 °FSunny.6 mph62%30.18 "Hg10 mi
4:50 pm50 °FPassing clouds.9 mph54%30.18 "HgN/A
4:20 pm48 °FSunny.10 mph62%30.18 "Hg10 mi
3:50 pm48 °FSunny.15 mph62%30.18 "Hg10 mi
3:20 pm50 °FPassing clouds.12 mph58%30.18 "HgN/A
2:20 pm54 °FSunny.No wind35%30.15 "Hg10 mi
1:50 pm54 °FPassing clouds.5 mph33%30.15 "HgN/A
1:20 pm52 °FPassing clouds.6 mph38%30.15 "HgN/A
12:50 pm52 °FSunny.7 mph41%30.15 "Hg10 mi
12:20 pm52 °FPassing clouds.7 mph35%30.12 "HgN/A
11:50 am50 °FSunny.9 mph47%30.12 "Hg10 mi
11:20 am50 °FPassing clouds.9 mph35%30.12 "HgN/A
10:50 am52 °FSunny.12 mph38%30.12 "Hg10 mi
10:20 am50 °FSunny.12 mph43%30.12 "Hg10 mi
9:20 am50 °FSunny.13 mph40%30.09 "Hg10 mi
8:50 am48 °FSunny.13 mph50%30.09 "Hg10 mi
8:20 am46 °FSunny.13 mph53%30.09 "Hg10 mi
7:50 am46 °FSunny.14 mph50%30.09 "Hg10 mi
7:20 am45 °FPassing clouds.12 mph53%30.09 "HgN/A
6:50 am45 °FSunny.13 mph49%30.07 "Hg10 mi
6:20 am45 °FSunny.16 mph53%30.07 "Hg10 mi
5:50 am45 °FSunny.15 mph49%30.07 "Hg10 mi
5:20 am45 °FQuite cool.15 mph49%30.07 "HgN/A
4:50 am45 °FQuite cool.16 mph49%30.07 "HgN/A
4:20 am45 °FQuite cool.15 mph49%30.07 "HgN/A
3:50 am45 °FQuite cool.17 mph49%30.07 "HgN/A
3:20 am45 °FQuite cool.16 mph49%30.04 "HgN/A
Weather by CustomWeather, © 2017

See weather overviewHow to use our weather pages